Location: Eitze
(52.9840°N, 9.6894°E)
Time: 20:39:57
(UTC+00:00)

Cosmos 2219 Rocket - Pass Details

Date: 19 May 2025
Orbit: 828 x 844 km, 71.0° (Epoch: 15 June)

Event Time Altitude Azimuth Distance (km) Brightness Sun altitude
Rises 22:19:18 0° 328° (NNW) 3,403 6.8 -15.9°
Reaches altitude 10° 22:21:55 10° 336° (NNW) 2,462 5.9 -16.0°
Maximum altitude 22:27:13 40° 46° (NE) 1,213 3.3 -16.2°
Drops below altitude 10° 22:32:28 10° 116° (ESE) 2,440 4.3 -16.4°
Enters shadow 22:32:35 10° 116° (ESE) 2,481 4.3 -16.4°
